Time,TemperatureF,DewpointF,PressureIn,WindDirection,WindDirectionDegrees,WindSpeedMPH,WindSpeedGustMPH,Humidity,HourlyPrecipIn,Conditions,Clouds,dailyrainin,SoftwareType,DateUTC
2013-05-31 00:02:00,34.0,29.0,-100.00,North,-999,0.0,0.0,80,-99.99,,,-99.99,,2013-05-31 07:02:00,
2013-05-31 00:11:00,34.0,29.0,-100.00,North,-999,0.0,0.0,80,-99.99,,,-99.99,,2013-05-31 07:11:00,
2013-05-31 00:21:00,33.0,29.0,-100.00,North,-999,0.0,0.0,83,-99.99,,,-99.99,,2013-05-31 07:21:00,
2013-05-31 00:32:00,33.0,29.0,-100.00,North,-999,0.0,0.0,83,-99.99,,,-99.99,,2013-05-31 07:32:00,
2013-05-31 00:41:00,33.0,29.0,-100.00,North,-999,0.0,0.0,83,-99.99,,,-99.99,,2013-05-31 07:41:00,
2013-05-31 00:42:00,31.0,28.0,-100.00,North,-999,0.0,0.0,88,-99.99,,,-99.99,,2013-05-31 07:42:00,
2013-05-31 00:52:00,32.0,29.0,-100.00,North,-999,0.0,0.0,85,-99.99,,,-99.99,,2013-05-31 07:52:00,
2013-05-31 01:02:00,32.0,29.0,-100.00,North,-999,0.0,0.0,86,-99.99,,,-99.99,,2013-05-31 08:02:00,
2013-05-31 01:11:00,32.0,29.0,-100.00,North,-999,0.0,0.0,86,-99.99,,,-99.99,,2013-05-31 08:11:00,
2013-05-31 01:21:00,32.0,28.0,-100.00,North,-999,0.0,0.0,87,-99.99,,,-99.99,,2013-05-31 08:21:00,
2013-05-31 01:31:00,31.0,28.0,-100.00,North,-999,0.0,0.0,88,-99.99,,,-99.99,,2013-05-31 08:31:00,
2013-05-31 01:43:00,30.0,28.0,-100.00,North,-999,0.0,0.0,91,-99.99,,,-99.99,,2013-05-31 08:43:00,
2013-05-31 01:51:00,31.0,28.0,-100.00,North,-999,0.0,0.0,89,-99.99,,,-99.99,,2013-05-31 08:51:00,
2013-05-31 02:01:00,31.0,28.0,-100.00,North,-999,0.0,0.0,90,-99.99,,,-99.99,,2013-05-31 09:01:00,
2013-05-31 02:11:00,31.0,28.0,-100.00,North,-999,0.0,0.0,90,-99.99,,,-99.99,,2013-05-31 09:11:00,
2013-05-31 02:21:00,31.0,28.0,-100.00,North,-999,0.0,0.0,91,-99.99,,,-99.99,,2013-05-31 09:21:00,
2013-05-31 02:32:00,30.0,28.0,-100.00,North,-999,0.0,0.0,91,-99.99,,,-99.99,,2013-05-31 09:32:00,
2013-05-31 02:53:00,30.0,28.0,-100.00,North,-999,0.0,0.0,92,-99.99,,,-99.99,,2013-05-31 09:53:00,
2013-05-31 03:02:00,30.0,28.0,-100.00,North,-999,0.0,0.0,93,-99.99,,,-99.99,,2013-05-31 10:02:00,
2013-05-31 03:12:00,30.0,28.0,-100.00,North,-999,0.0,0.0,93,-99.99,,,-99.99,,2013-05-31 10:12:00,
2013-05-31 03:22:00,30.0,28.0,-100.00,North,-999,0.0,0.0,93,-99.99,,,-99.99,,2013-05-31 10:22:00,
2013-05-31 03:33:00,29.0,28.0,-100.00,North,-999,0.0,0.0,93,-99.99,,,-99.99,,2013-05-31 10:33:00,
2013-05-31 03:42:00,29.0,28.0,-100.00,North,-999,0.0,0.0,94,-99.99,,,-99.99,,2013-05-31 10:42:00,
2013-05-31 03:52:00,29.0,28.0,-100.00,North,-999,0.0,0.0,94,-99.99,,,-99.99,,2013-05-31 10:52:00,
2013-05-31 04:02:00,29.0,27.0,-100.00,North,-999,0.0,0.0,94,-99.99,,,-99.99,,2013-05-31 11:02:00,
2013-05-31 04:11:00,29.0,27.0,-100.00,North,-999,0.0,0.0,94,-99.99,,,-99.99,,2013-05-31 11:11:00,
2013-05-31 04:22:00,28.0,27.0,-100.00,North,-999,0.0,0.0,94,-99.99,,,-99.99,,2013-05-31 11:22:00,
2013-05-31 04:32:00,28.0,27.0,-100.00,North,-999,0.0,0.0,94,-99.99,,,-99.99,,2013-05-31 11:32:00,
2013-05-31 04:52:00,28.0,27.0,-100.00,North,-999,0.0,0.0,95,-99.99,,,-99.99,,2013-05-31 11:52:00,
2013-05-31 05:01:00,27.0,26.0,-100.00,North,-999,0.0,0.0,95,-99.99,,,-99.99,,2013-05-31 12:01:00,
2013-05-31 05:11:00,27.0,26.0,-100.00,North,-999,0.0,0.0,95,-99.99,,,-99.99,,2013-05-31 12:11:00,
2013-05-31 05:21:00,27.0,26.0,-100.00,North,-999,0.0,0.0,95,-99.99,,,-99.99,,2013-05-31 12:21:00,
2013-05-31 05:31:00,27.0,26.0,-100.00,North,-999,0.0,0.0,95,-99.99,,,-99.99,,2013-05-31 12:31:00,
2013-05-31 05:41:00,27.0,26.0,-100.00,North,-999,0.0,0.0,95,-99.99,,,-99.99,,2013-05-31 12:41:00,
2013-05-31 05:42:00,28.0,27.0,-100.00,North,-999,0.0,0.0,95,-99.99,,,-99.99,,2013-05-31 12:42:00,
2013-05-31 05:52:00,27.0,26.0,-100.00,North,-999,0.0,0.0,95,-99.99,,,-99.99,,2013-05-31 12:52:00,
2013-05-31 06:01:00,27.0,26.0,-100.00,North,-999,0.0,0.0,95,-99.99,,,-99.99,,2013-05-31 13:01:00,
2013-05-31 06:11:00,27.0,26.0,-100.00,North,-999,0.0,0.0,95,-99.99,,,-99.99,,2013-05-31 13:11:00,
2013-05-31 06:21:00,28.0,26.0,-100.00,North,-999,0.0,0.0,95,-99.99,,,-99.99,,2013-05-31 13:21:00,
2013-05-31 06:32:00,28.0,27.0,-100.00,North,-999,0.0,0.0,95,-99.99,,,-99.99,,2013-05-31 13:32:00,
2013-05-31 06:52:00,28.0,27.0,-100.00,North,-999,0.0,0.0,95,-99.99,,,-99.99,,2013-05-31 13:52:00,
2013-05-31 07:02:00,31.0,29.0,-100.00,North,-999,0.0,0.0,95,-99.99,,,-99.99,,2013-05-31 14:02:00,
2013-05-31 07:11:00,31.0,29.0,-100.00,North,-999,0.0,0.0,95,-99.99,,,-99.99,,2013-05-31 14:11:00,
2013-05-31 07:21:00,33.0,31.0,-100.00,North,-999,0.0,0.0,91,-99.99,,,-99.99,,2013-05-31 14:21:00,
2013-05-31 07:32:00,36.0,31.0,-100.00,North,-999,0.0,0.0,82,-99.99,,,-99.99,,2013-05-31 14:32:00,
2013-05-31 07:43:00,41.0,32.0,-100.00,North,-999,0.0,0.0,71,-99.99,,,-99.99,,2013-05-31 14:43:00,
2013-05-31 07:52:00,38.0,31.0,-100.00,North,-999,0.0,0.0,76,-99.99,,,-99.99,,2013-05-31 14:52:00,
2013-05-31 08:01:00,39.0,32.0,-100.00,North,-999,0.0,0.0,76,-99.99,,,-99.99,,2013-05-31 15:01:00,
2013-05-31 08:11:00,39.0,32.0,-100.00,North,-999,0.0,0.0,76,-99.99,,,-99.99,,2013-05-31 15:11:00,
2013-05-31 08:21:00,40.0,32.0,-100.00,North,-999,0.0,0.0,74,-99.99,,,-99.99,,2013-05-31 15:21:00,
2013-05-31 08:33:00,41.0,32.0,-100.00,North,-999,0.0,0.0,71,-99.99,,,-99.99,,2013-05-31 15:33:00,
2013-05-31 08:42:00,45.0,32.0,-100.00,North,-999,0.0,0.0,60,-99.99,,,-99.99,,2013-05-31 15:42:00,
2013-05-31 08:53:00,41.0,32.0,-100.00,North,-999,0.0,0.0,69,-99.99,,,-99.99,,2013-05-31 15:53:00,
2013-05-31 09:03:00,43.0,32.0,-100.00,North,-999,0.0,0.0,65,-99.99,,,-99.99,,2013-05-31 16:03:00,
2013-05-31 09:12:00,44.0,32.0,-100.00,North,-999,0.0,0.0,63,-99.99,,,-99.99,,2013-05-31 16:12:00,
2013-05-31 09:22:00,44.0,32.0,-100.00,North,-999,0.0,0.0,63,-99.99,,,-99.99,,2013-05-31 16:22:00,
2013-05-31 09:33:00,45.0,32.0,-100.00,North,-999,0.0,0.0,60,-99.99,,,-99.99,,2013-05-31 16:33:00,
2013-05-31 09:52:00,46.0,31.0,-100.00,North,-999,0.0,0.0,55,-99.99,,,-99.99,,2013-05-31 16:52:00,
2013-05-31 10:02:00,49.0,30.0,-100.00,North,-999,0.0,0.0,48,-99.99,,,-99.99,,2013-05-31 17:02:00,
2013-05-31 10:12:00,49.0,30.0,-100.00,North,-999,0.0,0.0,48,-99.99,,,-99.99,,2013-05-31 17:12:00,
2013-05-31 10:22:00,50.0,29.0,-100.00,North,-999,0.0,0.0,43,-99.99,,,-99.99,,2013-05-31 17:22:00,
2013-05-31 10:32:00,52.0,28.0,-100.00,North,-999,0.0,0.0,39,-99.99,,,-99.99,,2013-05-31 17:32:00,
2013-05-31 10:42:00,52.0,28.0,-100.00,North,-999,0.0,0.0,39,-99.99,,,-99.99,,2013-05-31 17:42:00,
2013-05-31 10:52:00,54.0,27.0,-100.00,North,-999,0.0,0.0,36,-99.99,,,-99.99,,2013-05-31 17:52:00,
2013-05-31 11:01:00,56.0,27.0,-100.00,North,-999,0.0,0.0,33,-99.99,,,-99.99,,2013-05-31 18:01:00,
2013-05-31 11:11:00,56.0,27.0,-100.00,North,-999,0.0,0.0,33,-99.99,,,-99.99,,2013-05-31 18:11:00,
2013-05-31 11:22:00,57.0,24.0,-100.00,North,-999,0.0,0.0,28,-99.99,,,-99.99,,2013-05-31 18:22:00,
2013-05-31 11:31:00,58.0,23.0,-100.00,North,-999,0.0,0.0,25,-99.99,,,-99.99,,2013-05-31 18:31:00,
2013-05-31 11:42:00,60.0,21.0,-100.00,North,-999,0.0,0.0,22,-99.99,,,-99.99,,2013-05-31 18:42:00,
2013-05-31 11:52:00,59.0,22.0,-100.00,North,-999,0.0,0.0,23,-99.99,,,-99.99,,2013-05-31 18:52:00,
2013-05-31 12:02:00,61.0,23.0,-100.00,North,-999,0.0,0.0,23,-99.99,,,-99.99,,2013-05-31 19:02:00,
2013-05-31 12:22:00,61.0,22.0,-100.00,North,-999,0.0,0.0,22,-99.99,,,-99.99,,2013-05-31 19:22:00,
2013-05-31 12:32:00,60.0,21.0,-100.00,North,-999,0.0,0.0,22,-99.99,,,-99.99,,2013-05-31 19:32:00,
2013-05-31 12:52:00,61.0,22.0,-100.00,North,-999,0.0,0.0,22,-99.99,,,-99.99,,2013-05-31 19:52:00,
2013-05-31 13:01:00,62.0,22.0,-100.00,North,-999,0.0,0.0,21,-99.99,,,-99.99,,2013-05-31 20:01:00,
2013-05-31 13:11:00,62.0,22.0,-100.00,North,-999,0.0,0.0,21,-99.99,,,-99.99,,2013-05-31 20:11:00,
2013-05-31 13:22:00,64.0,23.0,-100.00,North,-999,0.0,0.0,21,-99.99,,,-99.99,,2013-05-31 20:22:00,
2013-05-31 13:31:00,65.0,23.0,-100.00,North,-999,0.0,0.0,20,-99.99,,,-99.99,,2013-05-31 20:31:00,
2013-05-31 13:41:00,65.0,23.0,-100.00,North,-999,0.0,0.0,20,-99.99,,,-99.99,,2013-05-31 20:41:00,
2013-05-31 13:51:00,67.0,23.0,-100.00,North,-999,0.0,0.0,19,-99.99,,,-99.99,,2013-05-31 20:51:00,
2013-05-31 14:01:00,68.0,23.0,-100.00,North,-999,0.0,0.0,18,-99.99,,,-99.99,,2013-05-31 21:01:00,
2013-05-31 14:11:00,68.0,23.0,-100.00,North,-999,0.0,0.0,18,-99.99,,,-99.99,,2013-05-31 21:11:00,
2013-05-31 14:22:00,68.0,21.0,-100.00,North,-999,0.0,0.0,17,-99.99,,,-99.99,,2013-05-31 21:22:00,
2013-05-31 14:32:00,68.0,23.0,-100.00,North,-999,0.0,0.0,18,-99.99,,,-99.99,,2013-05-31 21:32:00,
2013-05-31 14:42:00,68.0,23.0,-100.00,North,-999,0.0,0.0,18,-99.99,,,-99.99,,2013-05-31 21:42:00,
2013-05-31 14:53:00,68.0,21.0,-100.00,North,-999,0.0,0.0,17,-99.99,,,-99.99,,2013-05-31 21:53:00,
2013-05-31 15:02:00,69.0,22.0,-100.00,North,-999,0.0,0.0,17,-99.99,,,-99.99,,2013-05-31 22:02:00,
2013-05-31 15:12:00,69.0,21.0,-100.00,North,-999,0.0,0.0,16,-99.99,,,-99.99,,2013-05-31 22:12:00,
2013-05-31 15:22:00,69.0,21.0,-100.00,North,-999,0.0,0.0,16,-99.99,,,-99.99,,2013-05-31 22:22:00,
2013-05-31 15:33:00,70.0,20.0,-100.00,North,-999,0.0,0.0,15,-99.99,,,-99.99,,2013-05-31 22:33:00,
2013-05-31 15:42:00,70.0,20.0,-100.00,North,-999,0.0,0.0,15,-99.99,,,-99.99,,2013-05-31 22:42:00,
2013-05-31 15:52:00,69.0,20.0,-100.00,North,-999,0.0,0.0,15,-99.99,,,-99.99,,2013-05-31 22:52:00,
2013-05-31 16:02:00,70.0,19.0,-100.00,North,-999,0.0,0.0,14,-99.99,,,-99.99,,2013-05-31 23:02:00,
2013-05-31 16:12:00,70.0,19.0,-100.00,North,-999,0.0,0.0,14,-99.99,,,-99.99,,2013-05-31 23:12:00,
2013-05-31 16:21:00,71.0,19.0,-100.00,North,-999,0.0,0.0,14,-99.99,,,-99.99,,2013-05-31 23:21:00,
2013-05-31 16:32:00,71.0,19.0,-100.00,North,-999,0.0,0.0,14,-99.99,,,-99.99,,2013-05-31 23:32:00,
2013-05-31 16:42:00,71.0,19.0,-100.00,North,-999,0.0,0.0,14,-99.99,,,-99.99,,2013-05-31 23:42:00,
2013-05-31 16:52:00,71.0,19.0,-100.00,North,-999,0.0,0.0,14,-99.99,,,-99.99,,2013-05-31 23:52:00,
2013-05-31 17:01:00,71.0,21.0,-100.00,North,-999,0.0,0.0,15,-99.99,,,-99.99,,2013-06-01 00:01:00,
2013-05-31 17:11:00,71.0,21.0,-100.00,North,-999,0.0,0.0,15,-99.99,,,-99.99,,2013-06-01 00:11:00,
2013-05-31 18:01:00,69.0,24.0,-100.00,North,-999,0.0,0.0,18,-99.99,,,-99.99,,2013-06-01 01:01:00,
2013-05-31 18:11:00,69.0,24.0,-100.00,North,-999,0.0,0.0,18,-99.99,,,-99.99,,2013-06-01 01:11:00,
2013-05-31 18:21:00,69.0,23.0,-100.00,North,-999,0.0,0.0,18,-99.99,,,-99.99,,2013-06-01 01:21:00,
2013-05-31 18:32:00,68.0,24.0,-100.00,North,-999,0.0,0.0,19,-99.99,,,-99.99,,2013-06-01 01:32:00,
2013-05-31 18:42:00,68.0,24.0,-100.00,North,-999,0.0,0.0,19,-99.99,,,-99.99,,2013-06-01 01:42:00,
2013-05-31 18:52:00,68.0,24.0,-100.00,North,-999,0.0,0.0,19,-99.99,,,-99.99,,2013-06-01 01:52:00,
2013-05-31 19:01:00,68.0,26.0,-100.00,North,-999,0.0,0.0,20,-99.99,,,-99.99,,2013-06-01 02:01:00,
2013-05-31 19:11:00,68.0,26.0,-100.00,North,-999,0.0,0.0,20,-99.99,,,-99.99,,2013-06-01 02:11:00,
2013-05-31 19:21:00,65.0,25.0,-100.00,North,-999,0.0,0.0,22,-99.99,,,-99.99,,2013-06-01 02:21:00,
2013-05-31 19:32:00,63.0,26.0,-100.00,North,-999,0.0,0.0,24,-99.99,,,-99.99,,2013-06-01 02:32:00,
2013-05-31 19:42:00,63.0,26.0,-100.00,North,-999,0.0,0.0,24,-99.99,,,-99.99,,2013-06-01 02:42:00,
2013-05-31 19:43:00,60.0,28.0,-100.00,North,-999,0.0,0.0,30,-99.99,,,-99.99,,2013-06-01 02:43:00,
2013-05-31 19:51:00,61.0,27.0,-100.00,North,-999,0.0,0.0,27,-99.99,,,-99.99,,2013-06-01 02:51:00,
2013-05-31 20:01:00,61.0,27.0,-100.00,North,-999,0.0,0.0,27,-99.99,,,-99.99,,2013-06-01 03:01:00,
2013-05-31 20:11:00,61.0,27.0,-100.00,North,-999,0.0,0.0,27,-99.99,,,-99.99,,2013-06-01 03:11:00,
2013-05-31 20:21:00,61.0,28.0,-100.00,North,-999,0.0,0.0,29,-99.99,,,-99.99,,2013-06-01 03:21:00,
2013-05-31 20:33:00,60.0,28.0,-100.00,North,-999,0.0,0.0,30,-99.99,,,-99.99,,2013-06-01 03:33:00,
2013-05-31 20:42:00,55.0,29.0,-100.00,North,-999,0.0,0.0,36,-99.99,,,-99.99,,2013-06-01 03:42:00,
2013-05-31 20:53:00,59.0,28.0,-100.00,North,-999,0.0,0.0,31,-99.99,,,-99.99,,2013-06-01 03:53:00,
2013-05-31 21:02:00,58.0,29.0,-100.00,North,-999,0.0,0.0,33,-99.99,,,-99.99,,2013-06-01 04:02:00,
2013-05-31 21:12:00,58.0,29.0,-100.00,North,-999,0.0,0.0,33,-99.99,,,-99.99,,2013-06-01 04:12:00,
2013-05-31 21:23:00,56.0,28.0,-100.00,North,-999,0.0,0.0,34,-99.99,,,-99.99,,2013-06-01 04:23:00,
2013-05-31 21:33:00,55.0,29.0,-100.00,North,-999,0.0,0.0,36,-99.99,,,-99.99,,2013-06-01 04:33:00,
2013-05-31 21:42:00,50.0,29.0,-100.00,North,-999,0.0,0.0,44,-99.99,,,-99.99,,2013-06-01 04:42:00,
2013-05-31 21:53:00,53.0,29.0,-100.00,North,-999,0.0,0.0,40,-99.99,,,-99.99,,2013-06-01 04:53:00,
2013-05-31 22:02:00,53.0,29.0,-100.00,North,-999,0.0,0.0,40,-99.99,,,-99.99,,2013-06-01 05:02:00,
2013-05-31 22:22:00,52.0,29.0,-100.00,North,-999,0.0,0.0,41,-99.99,,,-99.99,,2013-06-01 05:22:00,
2013-05-31 22:32:00,50.0,29.0,-100.00,North,-999,0.0,0.0,44,-99.99,,,-99.99,,2013-06-01 05:32:00,
2013-05-31 22:52:00,51.0,30.0,-100.00,North,-999,0.0,0.0,45,-99.99,,,-99.99,,2013-06-01 05:52:00,
2013-05-31 23:01:00,52.0,31.0,-100.00,North,-999,0.0,0.0,44,-99.99,,,-99.99,,2013-06-01 06:01:00,
2013-05-31 23:12:00,52.0,31.0,-100.00,North,-999,0.0,0.0,44,-99.99,,,-99.99,,2013-06-01 06:12:00,
2013-05-31 23:22:00,51.0,31.0,-100.00,North,-999,0.0,0.0,45,-99.99,,,-99.99,,2013-06-01 06:22:00,
2013-05-31 23:32:00,50.0,30.0,-100.00,North,-999,0.0,0.0,47,-99.99,,,-99.99,,2013-06-01 06:32:00,
2013-05-31 23:42:00,50.0,30.0,-100.00,North,-999,0.0,0.0,47,-99.99,,,-99.99,,2013-06-01 06:42:00,
2013-05-31 23:52:00,48.0,30.0,-100.00,North,-999,0.0,0.0,49,-99.99,,,-99.99,,2013-06-01 06:52:00,